This is the latest recevied weather packets stored in our database for station/object KE0TNI-13. If no packets are shown the sender has not sent any weather packets the latest 10 day(s).
| Time | Temp. | Humidity | Pressure | Rain* | Wind** | Luminosity | Snow |
|---|---|---|---|---|---|---|---|
| 1777954095 | 2.22° C | 95% | 1015.9 hPa | 2.29 mm | - | 0 W/m² | - |
| 1777953793 | 2.22° C | 94% | 1016.1 hPa | 3.56 mm | - | 0 W/m² | - |
| 1777953490 | 1.67° C | 94% | 1016.1 hPa | 3.56 mm | - | 0 W/m² | - |
| 1777953185 | 2.22° C | 94% | 1015.9 hPa | 3.56 mm | - | 0 W/m² | - |
| 1777952883 | 2.22° C | 94% | 1016.2 hPa | 3.05 mm | - | 0 W/m² | - |
| 1777952579 | 2.22° C | 94% | 1016.5 hPa | 4.32 mm | - | 0 W/m² | - |
| 1777952276 | 2.78° C | 94% | 1016.2 hPa | 5.33 mm | - | 0 W/m² | - |
| 1777951974 | 2.78° C | 94% | 1015.9 hPa | 4.83 mm | - | 0 W/m² | - |
| 1777951671 | 3.33° C | 94% | 1016.1 hPa | 3.05 mm | - | 0 W/m² | - |
| 1777951367 | 3.33° C | 94% | 1016.2 hPa | 2.29 mm | - | 0 W/m² | - |
| 1777951065 | 3.33° C | 93% | 1015.9 hPa | 1.27 mm | - | 0 W/m² | - |
| 1777950761 | 3.33° C | 92% | 1015.8 hPa | 0.51 mm | - | 0 W/m² | - |
| 1777950458 | 3.33° C | 92% | 1015.4 hPa | 1.27 mm | - | 0 W/m² | - |
| 1777950154 | 3.33° C | 91% | 1015.6 hPa | 1.27 mm | - | 0 W/m² | - |
| 1777949850 | 3.33° C | 90% | 1015.7 hPa | 1.78 mm | - | 0 W/m² | - |
| 1777949548 | 3.89° C | 90% | 1015.6 hPa | 1.78 mm | - | 0 W/m² | - |
| 1777949246 | 3.89° C | 89% | 1015.4 hPa | 0.51 mm | - | 0 W/m² | - |
| 1777948943 | 3.89° C | 90% | 1015.4 hPa | 0 mm | - | 0 W/m² | - |
| 1777948640 | 3.89° C | 88% | 1015.2 hPa | 0 mm | - | 0 W/m² | - |
| 1777948338 | 3.89° C | 90% | 1014.9 hPa | 0 mm | - | 0 W/m² | - |
| 1777948035 | 3.89° C | 90% | 1015.2 hPa | 0 mm | - | 0 W/m² | - |
| 1777947732 | 3.89° C | 91% | 1015 hPa | 0 mm | - | 0 W/m² | - |
| 1777947428 | 3.89° C | 92% | 1014.8 hPa | 0 mm | - | 0 W/m² | - |
| 1777947126 | 3.89° C | 92% | 1014.8 hPa | 0 mm | - | 0 W/m² | - |
| 1777946821 | 3.89° C | 92% | 1014.7 hPa | 0 mm | - | 0 W/m² | - |
* Rain latest hour (hover to see other rain measurements)
** Current wind speed in m/s (hover to see current wind gust speed)